Time,TemperatureF,DewpointF,PressureIn,WindDirection,WindDirectionDegrees,WindSpeedMPH,WindSpeedGustMPH,Humidity,HourlyPrecipIn,Conditions,Clouds,dailyrainin,SolarRadiationWatts/m^2,SoftwareType,DateUTC
2013-07-01 00:00:00,55.6,53.0,29.87,NNW,332,0.0,1.0,91,0.00,,,0.00,0,weatherlink.com 1.10,2013-07-01 07:00:00,
2013-07-01 00:15:00,55.5,53.0,29.86,NNW,332,0.0,3.0,92,0.00,,,0.00,0,weatherlink.com 1.10,2013-07-01 07:15:00,
2013-07-01 00:30:00,55.0,53.0,29.86,NNW,332,1.0,1.0,92,0.00,,,0.00,0,weatherlink.com 1.10,2013-07-01 07:30:00,
2013-07-01 00:45:00,54.3,52.0,29.86,NNW,332,2.0,3.0,92,0.00,,,0.00,0,weatherlink.com 1.10,2013-07-01 07:45:00,
2013-07-01 01:00:00,54.4,53.0,29.86,NNW,332,0.0,1.0,93,0.00,,,0.00,0,weatherlink.com 1.10,2013-07-01 08:00:00,
2013-07-01 01:15:00,53.9,52.0,29.87,NNW,332,0.0,1.0,93,0.00,,,0.00,0,weatherlink.com 1.10,2013-07-01 08:15:00,
2013-07-01 01:30:00,53.8,52.0,29.87,NNW,332,0.0,2.0,93,0.00,,,0.00,0,weatherlink.com 1.10,2013-07-01 08:30:00,
2013-07-01 01:45:00,53.9,52.0,29.87,NNW,332,1.0,3.0,93,0.00,,,0.00,0,weatherlink.com 1.10,2013-07-01 08:45:00,
2013-07-01 02:00:00,53.8,52.0,29.87,NNW,332,1.0,3.0,93,0.00,,,0.00,0,weatherlink.com 1.10,2013-07-01 09:00:00,
2013-07-01 02:15:00,54.0,52.0,29.87,NNW,332,1.0,6.0,93,0.00,,,0.00,0,weatherlink.com 1.10,2013-07-01 09:15:00,
2013-07-01 02:30:00,53.8,52.0,29.87,NNW,332,1.0,3.0,93,0.00,,,0.00,0,weatherlink.com 1.10,2013-07-01 09:30:00,
2013-07-01 02:45:00,53.8,52.0,29.87,NNW,332,3.0,7.0,93,0.00,,,0.00,0,weatherlink.com 1.10,2013-07-01 09:45:00,
2013-07-01 03:00:00,54.0,52.0,29.88,NNW,332,3.0,6.0,93,0.00,,,0.00,0,weatherlink.com 1.10,2013-07-01 10:00:00,
2013-07-01 03:15:00,53.9,52.0,29.87,NNW,332,2.0,6.0,93,0.00,,,0.00,0,weatherlink.com 1.10,2013-07-01 10:15:00,
2013-07-01 03:30:00,53.9,52.0,29.87,NNW,332,0.0,3.0,93,0.00,,,0.00,0,weatherlink.com 1.10,2013-07-01 10:30:00,
2013-07-01 03:45:00,53.4,52.0,29.87,NNW,332,1.0,2.0,93,0.00,,,0.00,0,weatherlink.com 1.10,2013-07-01 10:45:00,
2013-07-01 04:00:00,52.9,51.0,29.86,NNW,332,0.0,1.0,93,0.00,,,0.00,0,weatherlink.com 1.10,2013-07-01 11:00:00,
2013-07-01 04:15:00,53.0,51.0,29.86,NNW,332,0.0,3.0,94,0.00,,,0.00,0,weatherlink.com 1.10,2013-07-01 11:15:00,
2013-07-01 04:45:00,53.2,52.0,29.86,NNW,332,1.0,3.0,94,0.00,,,0.00,0,weatherlink.com 1.10,2013-07-01 11:45:00,
2013-07-01 05:00:00,52.9,51.0,29.87,NNW,332,0.0,3.0,94,0.00,,,0.00,0,weatherlink.com 1.10,2013-07-01 12:00:00,
2013-07-01 05:15:00,52.4,51.0,29.86,NNW,332,0.0,3.0,94,0.00,,,0.00,0,weatherlink.com 1.10,2013-07-01 12:15:00,
2013-07-01 05:30:00,51.7,50.0,29.87,NNW,332,0.0,2.0,94,0.00,,,0.00,0,weatherlink.com 1.10,2013-07-01 12:30:00,
2013-07-01 05:45:00,51.7,50.0,29.86,NNW,332,3.0,3.0,94,0.00,,,0.00,0,weatherlink.com 1.10,2013-07-01 12:45:00,
2013-07-01 06:00:00,52.1,51.0,29.86,NNW,332,0.0,3.0,94,0.00,,,0.00,5,weatherlink.com 1.10,2013-07-01 13:00:00,
2013-07-01 06:15:00,51.2,50.0,29.86,NNW,332,0.0,2.0,94,0.00,,,0.00,12,weatherlink.com 1.10,2013-07-01 13:15:00,
2013-07-01 06:30:00,51.0,49.0,29.87,NNW,332,1.0,2.0,94,0.00,,,0.00,26,weatherlink.com 1.10,2013-07-01 13:30:00,
2013-07-01 06:45:00,52.0,51.0,29.87,NNW,332,0.0,3.0,95,0.00,,,0.00,37,weatherlink.com 1.10,2013-07-01 13:45:00,
2013-07-01 07:00:00,52.7,51.0,29.87,NNW,332,0.0,1.0,95,0.00,,,0.00,107,weatherlink.com 1.10,2013-07-01 14:00:00,
2013-07-01 07:15:00,55.1,54.0,29.87,NNW,332,0.0,1.0,96,0.00,,,0.00,156,weatherlink.com 1.10,2013-07-01 14:15:00,
2013-07-01 07:30:00,57.3,56.0,29.86,NNW,332,3.0,4.0,95,0.00,,,0.00,211,weatherlink.com 1.10,2013-07-01 14:30:00,
2013-07-01 07:45:00,60.0,58.0,29.86,NNW,332,1.0,2.0,93,0.00,,,0.00,255,weatherlink.com 1.10,2013-07-01 14:45:00,
2013-07-01 08:01:00,61.9,59.0,29.86,NNW,332,1.0,3.0,89,0.00,,,0.00,320,weatherlink.com 1.10,2013-07-01 15:01:00,
2013-07-01 08:16:00,65.8,60.0,29.86,NNW,332,0.0,3.0,80,0.00,,,0.00,385,weatherlink.com 1.10,2013-07-01 15:16:00,
2013-07-01 08:31:00,69.2,60.0,29.86,NNW,332,1.0,3.0,73,0.00,,,0.00,436,weatherlink.com 1.10,2013-07-01 15:31:00,
2013-07-01 08:46:00,72.1,60.0,29.86,NNW,332,0.0,2.0,66,0.00,,,0.00,485,weatherlink.com 1.10,2013-07-01 15:46:00,
2013-07-01 09:01:00,74.9,59.0,29.86,NNW,332,0.0,3.0,58,0.00,,,0.00,540,weatherlink.com 1.10,2013-07-01 16:01:00,
2013-07-01 09:16:00,75.3,59.0,29.86,NNW,332,1.0,4.0,58,0.00,,,0.00,577,weatherlink.com 1.10,2013-07-01 16:16:00,
2013-07-01 09:31:00,76.9,58.0,29.86,NNW,332,1.0,6.0,52,0.00,,,0.00,617,weatherlink.com 1.10,2013-07-01 16:31:00,
2013-07-01 09:46:00,76.3,59.0,29.87,NNW,332,3.0,6.0,55,0.00,,,0.00,661,weatherlink.com 1.10,2013-07-01 16:46:00,
2013-07-01 10:01:00,75.7,59.0,29.88,NNW,332,2.0,5.0,57,0.00,,,0.00,698,weatherlink.com 1.10,2013-07-01 17:01:00,
2013-07-01 10:16:00,73.9,58.0,29.89,WNW,288,5.0,7.0,57,0.00,,,0.00,735,weatherlink.com 1.10,2013-07-01 17:16:00,
2013-07-01 10:31:00,71.8,57.0,29.89,West,281,3.0,7.0,61,0.00,,,0.00,768,weatherlink.com 1.10,2013-07-01 17:31:00,
2013-07-01 10:46:00,72.2,57.0,29.90,West,273,1.0,6.0,59,0.00,,,0.00,798,weatherlink.com 1.10,2013-07-01 17:46:00,
2013-07-01 11:01:00,70.1,56.0,29.90,SSE,157,3.0,5.0,62,0.00,,,0.00,828,weatherlink.com 1.10,2013-07-01 18:01:00,
2013-07-01 11:16:00,68.7,57.0,29.90,SSE,168,3.0,5.0,66,0.00,,,0.00,860,weatherlink.com 1.10,2013-07-01 18:16:00,
2013-07-01 11:32:00,70.7,56.0,29.90,SSW,195,3.0,6.0,61,0.00,,,0.00,877,weatherlink.com 1.10,2013-07-01 18:32:00,
2013-07-01 11:47:00,71.7,57.0,29.90,South,190,2.0,6.0,61,0.00,,,0.00,900,weatherlink.com 1.10,2013-07-01 18:47:00,
2013-07-01 12:02:00,73.7,58.0,29.90,SW,219,3.0,5.0,59,0.00,,,0.00,921,weatherlink.com 1.10,2013-07-01 19:02:00,
2013-07-01 12:17:00,75.2,59.0,29.90,SSW,194,3.0,5.0,57,0.00,,,0.00,935,weatherlink.com 1.10,2013-07-01 19:17:00,
2013-07-01 12:32:00,75.3,58.0,29.90,SW,235,0.0,5.0,56,0.00,,,0.00,944,weatherlink.com 1.10,2013-07-01 19:32:00,
2013-07-01 12:47:00,77.2,61.0,29.90,WSW,254,5.0,5.0,57,0.00,,,0.00,953,weatherlink.com 1.10,2013-07-01 19:47:00,
2013-07-01 13:02:00,77.9,60.0,29.90,West,275,5.0,8.0,54,0.00,,,0.00,951,weatherlink.com 1.10,2013-07-01 20:02:00,
2013-07-01 13:17:00,73.0,58.0,29.90,NW,321,9.0,11.0,60,0.00,,,0.00,944,weatherlink.com 1.10,2013-07-01 20:17:00,
2013-07-01 13:32:00,69.8,58.0,29.90,NW,304,9.0,13.0,67,0.00,,,0.00,940,weatherlink.com 1.10,2013-07-01 20:32:00,
2013-07-01 13:47:00,66.9,58.0,29.90,NW,307,10.0,17.0,73,0.00,,,0.00,932,weatherlink.com 1.10,2013-07-01 20:47:00,
2013-07-01 14:02:00,67.0,58.0,29.90,NNW,327,5.0,12.0,72,0.00,,,0.00,925,weatherlink.com 1.10,2013-07-01 21:02:00,
2013-07-01 14:17:00,65.4,57.0,29.89,NW,313,16.0,19.0,75,0.00,,,0.00,912,weatherlink.com 1.10,2013-07-01 21:17:00,
2013-07-01 14:32:00,65.2,57.0,29.89,NNE,19,12.0,21.0,76,0.00,,,0.00,895,weatherlink.com 1.10,2013-07-01 21:32:00,
2013-07-01 14:47:00,65.8,58.0,29.89,NNW,338,5.0,20.0,76,0.00,,,0.00,875,weatherlink.com 1.10,2013-07-01 21:47:00,
2013-07-01 15:02:00,65.5,58.0,29.89,NW,320,8.0,17.0,76,0.00,,,0.00,849,weatherlink.com 1.10,2013-07-01 22:02:00,
2013-07-01 15:17:00,65.4,58.0,29.89,WNW,302,11.0,18.0,76,0.00,,,0.00,826,weatherlink.com 1.10,2013-07-01 22:17:00,
2013-07-01 15:32:00,66.1,58.0,29.88,North,11,11.0,18.0,76,0.00,,,0.00,805,weatherlink.com 1.10,2013-07-01 22:32:00,
2013-07-01 15:47:00,66.5,58.0,29.88,NNW,346,4.0,17.0,74,0.00,,,0.00,772,weatherlink.com 1.10,2013-07-01 22:47:00,
2013-07-01 16:02:00,66.2,58.0,29.88,NNW,348,8.0,16.0,74,0.00,,,0.00,735,weatherlink.com 1.10,2013-07-01 23:02:00,
2013-07-01 16:17:00,65.6,58.0,29.88,NNW,342,5.0,16.0,76,0.00,,,0.00,700,weatherlink.com 1.10,2013-07-01 23:17:00,
2013-07-01 16:47:00,64.5,57.0,29.88,NW,321,13.0,20.0,77,0.00,,,0.00,622,weatherlink.com 1.10,2013-07-01 23:47:00,
2013-07-01 17:02:00,64.5,57.0,29.88,NW,306,12.0,17.0,76,0.00,,,0.00,577,weatherlink.com 1.10,2013-07-02 00:02:00,
2013-07-01 17:17:00,64.5,58.0,29.88,North,355,7.0,17.0,78,0.00,,,0.00,527,weatherlink.com 1.10,2013-07-02 00:17:00,
2013-07-01 17:32:00,65.2,58.0,29.87,NNW,346,9.0,13.0,77,0.00,,,0.00,483,weatherlink.com 1.10,2013-07-02 00:32:00,
2013-07-01 17:47:00,65.5,58.0,29.88,NNW,329,2.0,12.0,77,0.00,,,0.00,431,weatherlink.com 1.10,2013-07-02 00:47:00,
2013-07-01 18:02:00,65.6,58.0,29.87,NNW,348,5.0,13.0,76,0.00,,,0.00,387,weatherlink.com 1.10,2013-07-02 01:02:00,
2013-07-01 18:17:00,65.2,57.0,29.87,North,350,8.0,12.0,76,0.00,,,0.00,339,weatherlink.com 1.10,2013-07-02 01:17:00,
2013-07-01 18:32:00,64.6,57.0,29.86,NW,315,8.0,12.0,77,0.00,,,0.00,295,weatherlink.com 1.10,2013-07-02 01:32:00,
2013-07-01 18:47:00,64.5,57.0,29.86,NW,310,6.0,12.0,77,0.00,,,0.00,244,weatherlink.com 1.10,2013-07-02 01:47:00,
2013-07-01 19:02:00,64.5,57.0,29.87,NW,311,2.0,9.0,77,0.00,,,0.00,204,weatherlink.com 1.10,2013-07-02 02:02:00,
2013-07-01 19:17:00,63.5,56.0,29.87,NW,322,5.0,9.0,77,0.00,,,0.00,165,weatherlink.com 1.10,2013-07-02 02:17:00,
2013-07-01 19:32:00,62.9,56.0,29.87,NW,306,4.0,7.0,79,0.00,,,0.00,127,weatherlink.com 1.10,2013-07-02 02:32:00,
2013-07-01 19:47:00,62.7,56.0,29.87,WNW,294,5.0,7.0,79,0.00,,,0.00,90,weatherlink.com 1.10,2013-07-02 02:47:00,
2013-07-01 20:02:00,62.0,56.0,29.87,NW,306,1.0,7.0,80,0.00,,,0.00,56,weatherlink.com 1.10,2013-07-02 03:02:00,
2013-07-01 20:17:00,61.4,55.0,29.88,NW,306,4.0,7.0,80,0.00,,,0.00,33,weatherlink.com 1.10,2013-07-02 03:17:00,
2013-07-01 20:32:00,60.1,55.0,29.88,NW,306,3.0,6.0,83,0.00,,,0.00,16,weatherlink.com 1.10,2013-07-02 03:32:00,
2013-07-01 20:47:00,58.6,54.0,29.88,NW,319,4.0,8.0,85,0.00,,,0.00,5,weatherlink.com 1.10,2013-07-02 03:47:00,
2013-07-01 21:02:00,58.4,56.0,29.88,NW,310,0.0,2.0,91,0.00,,,0.00,,weatherlink.com 1.10,2013-07-02 04:02:00,
2013-07-01 21:17:00,58.1,56.0,29.88,NW,310,0.0,0.0,92,0.00,,,0.00,,weatherlink.com 1.10,2013-07-02 04:17:00,
2013-07-01 21:32:00,57.6,56.0,29.88,NW,310,0.0,1.0,93,0.00,,,0.00,,weatherlink.com 1.10,2013-07-02 04:32:00,
2013-07-01 21:47:00,57.5,56.0,29.89,NW,310,0.0,0.0,93,0.00,,,0.00,,weatherlink.com 1.10,2013-07-02 04:47:00,
2013-07-01 22:02:00,57.3,55.0,29.89,NW,310,0.0,0.0,93,0.00,,,0.00,,weatherlink.com 1.10,2013-07-02 05:02:00,
2013-07-01 22:18:00,56.9,55.0,29.89,NW,310,0.0,0.0,94,0.00,,,0.00,,weatherlink.com 1.10,2013-07-02 05:18:00,
2013-07-01 22:33:00,57.3,56.0,29.89,NW,310,0.0,0.0,95,0.00,,,0.00,,weatherlink.com 1.10,2013-07-02 05:33:00,
2013-07-01 22:48:00,57.2,56.0,29.89,NW,310,0.0,0.0,95,0.00,,,0.00,,weatherlink.com 1.10,2013-07-02 05:48:00,
2013-07-01 23:03:00,56.6,55.0,29.89,NW,310,0.0,0.0,94,0.00,,,0.00,,weatherlink.com 1.10,2013-07-02 06:03:00,
2013-07-01 23:18:00,56.2,55.0,29.89,NW,310,0.0,0.0,96,0.00,,,0.00,,weatherlink.com 1.10,2013-07-02 06:18:00,
2013-07-01 23:33:00,56.9,56.0,29.89,NW,310,0.0,0.0,96,0.00,,,0.00,,weatherlink.com 1.10,2013-07-02 06:33:00,
2013-07-01 23:48:00,56.6,56.0,29.89,NW,310,0.0,0.0,96,0.00,,,0.00,,weatherlink.com 1.10,2013-07-02 06:48:00,